Date,TemperatureHighF,TemperatureAvgF,TemperatureLowF,DewpointHighF,DewpointAvgF,DewpointLowF,HumidityHigh,HumidityAvg,HumidityLow,PressureMaxIn,PressureMinIn,WindSpeedMaxMPH,WindSpeedAvgMPH,GustSpeedMaxMPH,PrecipitationSumIn
2013-6-1,88.2,71.6,49.6,28.0,2.3,-26.0,19,9,1,29.84,29.71,12,3,17,0.00
2013-6-2,86.9,73.6,59.2,43.0,33.7,26.0,36,24,15,29.84,29.55,11,3,39,0.00
2013-6-3,92.8,77.7,61.8,49.0,32.3,-4.0,56,27,3,29.71,29.48,20,6,33,0.00
2013-6-4,93.6,78.8,58.8,29.0,12.4,-10.0,25,9,2,29.70,29.51,19,4,23,0.00
2013-6-5,90.5,77.1,61.4,42.0,29.1,11.0,37,18,5,29.67,29.50,16,4,22,0.00
2013-6-6,91.2,73.9,54.7,47.0,37.7,21.0,57,31,9,29.75,29.57,15,3,26,0.00
2013-6-7,92.8,74.2,58.7,51.0,42.4,23.0,69,37,8,29.75,29.47,9,3,19,0.00
2013-6-8,97.4,79.1,58.4,45.0,33.2,13.0,60,27,5,29.64,29.44,18,4,27,0.00
2013-6-9,97.6,82.5,65.2,48.0,39.4,25.0,47,25,8,29.69,29.53,9,3,14,0.00
2013-6-10,100.6,85.7,67.4,49.0,34.7,18.0,45,21,5,29.68,29.48,14,4,24,0.00
2013-6-11,101.4,87.0,69.0,33.0,13.4,-19.0,23,8,1,29.69,29.48,22,5,28,0.00
2013-6-12,102.4,83.1,60.5,24.0,13.4,-2.0,17,9,2,29.76,29.59,12,2,17,0.00
2013-6-13,100.8,82.3,65.6,45.0,34.3,6.0,33,19,3,29.72,29.53,10,3,30,0.00
2013-6-14,92.9,79.7,68.0,54.0,46.7,39.0,49,32,20,29.67,29.49,17,4,28,0.00
2013-6-15,96.8,78.7,59.9,51.0,40.8,21.0,69,33,7,29.79,29.61,21,4,37,0.00
2013-6-16,94.4,80.3,65.5,45.0,39.2,32.0,42,25,11,29.80,29.63,19,4,31,0.00
2013-6-17,94.4,79.4,61.8,44.0,37.2,31.0,39,24,12,29.80,29.58,11,2,15,0.00
2013-6-18,92.4,79.5,64.3,52.0,45.5,36.0,60,34,14,29.78,29.52,11,3,15,0.00
2013-6-19,98.5,82.2,61.7,48.0,17.6,-22.0,48,17,1,29.64,29.39,15,4,25,0.00
2013-6-20,97.4,80.0,60.1,46.0,6.1,-31.0,44,13,1,29.67,29.46,11,3,20,0.00
2013-6-21,96.1,78.4,56.7,45.0,9.8,-22.0,33,11,1,29.74,29.48,15,3,16,0.00
2013-6-22,94.7,79.0,57.8,25.0,2.6,-23.0,20,7,1,29.70,29.49,18,4,27,0.00
2013-6-23,94.0,78.8,56.7,24.0,8.5,1.0,22,8,3,29.70,29.46,17,3,18,0.00
2013-6-24,95.0,80.6,62.9,20.0,-2.1,-27.0,15,5,1,29.67,29.49,20,6,25,0.00
2013-6-25,96.4,81.5,60.5,28.0,15.3,-2.0,23,9,4,29.74,29.57,13,3,34,0.00
2013-6-26,101.5,84.5,63.9,33.0,21.6,13.0,25,11,4,29.78,29.60,9,2,16,0.00
2013-6-27,106.9,87.8,67.1,34.0,23.6,-13.0,28,12,1,29.78,29.59,10,2,13,0.00
2013-6-28,99.1,85.1,74.8,53.0,42.6,28.0,44,24,12,29.82,29.65,20,4,30,0.00
2013-6-29,99.5,80.7,67.3,50.0,44.9,36.0,52,31,11,29.83,29.63,12,4,25,0.00
2013-6-30,98.9,80.5,67.5,51.0,45.8,36.0,48,32,12,29.83,29.55,15,4,30,0.00